This is the latest recevied weather packets stored in our database for station/object M0SDM-10. If no packets are shown the sender has not sent any weather packets the latest 10 day(s).
| Time | Temp. | Humidity | Pressure | Rain* | Wind** | Luminosity | Snow |
|---|---|---|---|---|---|---|---|
| 1778014703 | 12.78° C | 67% | 1004.3 hPa | - | - | - | - |
| 1778012903 | 12.78° C | 66% | 1004.2 hPa | - | - | - | - |
| 1778011103 | 13.33° C | 66% | 1004 hPa | - | - | - | - |
| 1778009302 | 13.33° C | 66% | 1003.9 hPa | - | - | - | - |
| 1778007502 | 13.89° C | 67% | 1003.6 hPa | - | - | - | - |
| 1778005702 | 13.89° C | 66% | 1003.4 hPa | - | - | - | - |
| 1778003902 | 13.89° C | 66% | 1003.2 hPa | - | - | - | - |
| 1778002101 | 14.44° C | 68% | 1003.1 hPa | - | - | - | - |
| 1778000301 | 14.44° C | 68% | 1002.8 hPa | - | - | - | - |
| 1777998501 | 13.89° C | 61% | 1002.7 hPa | - | - | - | - |
| 1777996701 | 14.44° C | 63% | 1002.7 hPa | - | - | - | - |
| 1777994901 | 14.44° C | 62% | 1002.8 hPa | - | - | - | - |
| 1777993101 | 14.44° C | 65% | 1002.8 hPa | - | - | - | - |
| 1777991300 | 13.89° C | 63% | 1002.9 hPa | - | - | - | - |
| 1777989500 | 13.89° C | 63% | 1002.9 hPa | - | - | - | - |
| 1777987700 | 13.89° C | 66% | 1003 hPa | - | - | - | - |
| 1777985900 | 13.89° C | 65% | 1003 hPa | - | - | - | - |
| 1777984100 | 13.89° C | 66% | 1002.9 hPa | - | - | - | - |
| 1777982300 | 13.89° C | 68% | 1003 hPa | - | - | - | - |
| 1777980499 | 13.33° C | 71% | 1003 hPa | - | - | - | - |
| 1777978699 | 13.33° C | 68% | 1003.1 hPa | - | - | - | - |
| 1777976899 | 13.33° C | 69% | 1003.2 hPa | - | - | - | - |
| 1777975099 | 12.78° C | 71% | 1003.3 hPa | - | - | - | - |
| 1777973299 | 12.78° C | 73% | 1003.4 hPa | - | - | - | - |
| 1777971499 | 12.22° C | 73% | 1003.4 hPa | - | - | - | - |
* Rain since midnight (hover to see other rain measurements)
** Current wind speed in m/s (hover to see current wind gust speed)